• In Spain
  • List of Countries
  • For 7 days
  • Water Temperature
  • Satellite Maps
  • Weather Map
  • Weather Widgets
  • user-avatar
    Login

    Hourly Weather Bolshoe Ryzhkovo

    Today, 20 September, Thursday

    Time Temperature Precipitation Wind Pressure Humidity
    00:00 +14°C° 0 mm 3 mps 745 mmHg 88%
    01:00 +14°C° 0 mm 3 mps 745 mmHg 90%
    02:00 +15°C° 0 mm 2 mps 745 mmHg 91%
    03:00 +15°C° 0 mm 2 mps 745 mmHg 91%
    04:00 +14°C° 0 mm 3 mps 745 mmHg 92%
    05:00 +13°C° 0 mm 3 mps 745 mmHg 93%
    06:00 +16°C° 0 mm 3 mps 745 mmHg 88%
    07:00 +17°C° 0 mm 4 mps 745 mmHg 83%
    08:00 +19°C° 0 mm 4 mps 745 mmHg 78%
    09:00 +21°C° 0 mm 4 mps 745 mmHg 73%
    10:00 +22°C° 0 mm 5 mps 745 mmHg 68%
    11:00 +25°C° 0 mm 5 mps 745 mmHg 64%
    12:00 +25°C° 0 mm 5 mps 745 mmHg 61%
    13:00 +26°C° 0 mm 5 mps 745 mmHg 59%
    14:00 +27°C° 0 mm 4 mps 745 mmHg 55%
    15:00 +26°C° 0 mm 4 mps 745 mmHg 60%
    16:00 +25°C° 0 mm 3 mps 745 mmHg 65%
    17:00 +24°C° 0 mm 3 mps 745 mmHg 70%
    18:00 +22°C° 0 mm 3 mps 745 mmHg 74%
    19:00 +20°C° 0 mm 3 mps 745 mmHg 78%
    20:00 +19°C° 0 mm 3 mps 745 mmHg 82%
    21:00 +18°C° 0 mm 2 mps 745 mmHg 84%
    22:00 +18°C° 0 mm 2 mps 745 mmHg 85%
    23:00 +17°C° 0 mm 2 mps 745 mmHg 87%

    Tomorrow, 21 September, Friday

    Time Temperature Precipitation Wind Pressure Humidity
    00:00 +17°C° 0 mm 2 mps 746 mmHg 88%
    01:00 +16°C° 0 mm 1 mps 746 mmHg 89%
    02:00 +16°C° 0 mm 1 mps 746 mmHg 89%
    03:00 +16°C° 0 mm 1 mps 746 mmHg 90%
    04:00 +15°C° 0 mm 1 mps 746 mmHg 90%
    05:00 +15°C° 0 mm 1 mps 746 mmHg 90%
    06:00 +16°C° 0 mm 1 mps 747 mmHg 85%
    07:00 +19°C° 0 mm 1 mps 747 mmHg 80%
    08:00 +20°C° 0 mm 1 mps 747 mmHg 75%
    09:00 +22°C° 0 mm 1 mps 747 mmHg 69%
    10:00 +23°C° 0 mm 1 mps 747 mmHg 62%
    11:00 +25°C° 0 mm 1 mps 747 mmHg 56%
    12:00 +25°C° 0 mm 1 mps 747 mmHg 54%
    13:00 +26°C° 0 mm 1 mps 747 mmHg 53%
    14:00 +27°C° 0 mm 1 mps 747 mmHg 51%
    15:00 +26°C° 0 mm 1 mps 747 mmHg 55%
    16:00 +25°C° 0 mm 1 mps 747 mmHg 59%
    17:00 +22°C° 0 mm 0 mps 747 mmHg 64%
    18:00 +23°C° 0 mm 1 mps 747 mmHg 66%
    19:00 +22°C° 0 mm 1 mps 747 mmHg 69%
    20:00 +20°C° 0 mm 2 mps 747 mmHg 71%
    21:00 +19°C° 0 mm 2 mps 747 mmHg 72%
    22:00 +19°C° 0 mm 2 mps 747 mmHg 74%
    23:00 +18°C° 0 mm 2 mps 747 mmHg 75%

    Day after tomorrow, 22 September, Saturday

    Time Temperature Precipitation Wind Pressure Humidity
    00:00 +18°C° 0 mm 2 mps 747 mmHg 75%
    01:00 +18°C° 0 mm 2 mps 747 mmHg 76%
    02:00 +17°C° 0 mm 2 mps 747 mmHg 76%
    03:00 +17°C° 0 mm 2 mps 746 mmHg 76%
    04:00 +17°C° 0 mm 2 mps 746 mmHg 76%
    05:00 +17°C° 0 mm 3 mps 746 mmHg 75%
    06:00 +18°C° 0 mm 3 mps 746 mmHg 72%
    07:00 +19°C° 0 mm 4 mps 746 mmHg 69%
    08:00 +20°C° 0 mm 4 mps 746 mmHg 65%
    09:00 +22°C° 0 mm 4 mps 746 mmHg 60%
    10:00 +23°C° 0 mm 5 mps 745 mmHg 56%
    11:00 +26°C° 0 mm 5 mps 745 mmHg 51%
    12:00 +26°C° 0 mm 5 mps 745 mmHg 49%
    13:00 +27°C° 0 mm 6 mps 744 mmHg 47%
    14:00 +27°C° 0 mm 6 mps 744 mmHg 45%
    15:00 +26°C° 0 mm 5 mps 743 mmHg 50%
    16:00 +25°C° 0 mm 4 mps 743 mmHg 54%
    17:00 +24°C° 0 mm 3 mps 742 mmHg 59%
    18:00 +22°C° 0 mm 4 mps 742 mmHg 58%
    19:00 +22°C° 0 mm 4 mps 742 mmHg 58%
    20:00 +21°C° 0 mm 4 mps 741 mmHg 57%
    21:00 +21°C° 0 mm 5 mps 741 mmHg 56%
    22:00 +20°C° 0 mm 5 mps 741 mmHg 55%
    23:00 +20°C° 0 mm 5 mps 740 mmHg 54%

    23 September, Sunday

    Time Temperature Precipitation Wind Pressure Humidity
    00:00 +20°C° 0 mm 5 mps 740 mmHg 54%
    01:00 +19°C° 0 mm 5 mps 740 mmHg 55%
    02:00 +19°C° 0 mm 5 mps 739 mmHg 56%
    03:00 +17°C° 0 mm 5 mps 739 mmHg 59%
    04:00 +17°C° 0 mm 5 mps 739 mmHg 62%
    05:00 +16°C° 0 mm 5 mps 738 mmHg 65%
    06:00 +14°C° 0.3 mm 5 mps 738 mmHg 71%
    07:00 +13°C° 0.3 mm 6 mps 738 mmHg 77%
    08:00 +10°C° 0.3 mm 7 mps 739 mmHg 84%
    09:00 +9°C° 0.9 mm 6 mps 739 mmHg 83%
    10:00 +9°C° 0.9 mm 6 mps 739 mmHg 83%
    11:00 +8°C° 0.9 mm 6 mps 740 mmHg 83%
    12:00 +9°C° 0.1 mm 6 mps 740 mmHg 82%
    13:00 +10°C° 0.1 mm 5 mps 741 mmHg 80%
    14:00 +10°C° 0.1 mm 5 mps 741 mmHg 79%
    15:00 +10°C° 0 mm 5 mps 741 mmHg 78%
    16:00 +10°C° 0 mm 5 mps 741 mmHg 78%
    17:00 +11°C° 0 mm 4 mps 741 mmHg 78%
    18:00 +11°C° 0 mm 4 mps 741 mmHg 80%
    19:00 +10°C° 0 mm 4 mps 741 mmHg 83%
    20:00 +10°C° 0 mm 4 mps 741 mmHg 86%
    21:00 +8°C° 0 mm 4 mps 741 mmHg 87%
    22:00 +8°C° 0 mm 4 mps 741 mmHg 87%
    23:00 +7°C° 0 mm 4 mps 741 mmHg 88%

    24 September, Monday

    Time Temperature Precipitation Wind Pressure Humidity
    00:00 +8°C° 0 mm 3 mps 741 mmHg 90%
    01:00 +7°C° 0 mm 3 mps 741 mmHg 92%
    02:00 +7°C° 0 mm 3 mps 741 mmHg 93%
    03:00 +7°C° 0 mm 3 mps 741 mmHg 93%
    04:00 +5°C° 0 mm 3 mps 741 mmHg 94%
    05:00 +6°C° 0 mm 2 mps 741 mmHg 94%
    06:00 +7°C° 0 mm 3 mps 741 mmHg 89%
    07:00 +9°C° 0 mm 3 mps 741 mmHg 84%
    08:00 +10°C° 0 mm 3 mps 741 mmHg 78%
    09:00 +11°C° 0 mm 4 mps 741 mmHg 71%
    10:00 +13°C° 0 mm 4 mps 740 mmHg 65%
    11:00 +14°C° 0 mm 5 mps 740 mmHg 58%
    12:00 +14°C° 0.2 mm 5 mps 739 mmHg 59%
    13:00 +13°C° 0.2 mm 5 mps 738 mmHg 60%
    14:00 +13°C° 0.2 mm 6 mps 737 mmHg 62%
    15:00 +11°C° 1.3 mm 7 mps 736 mmHg 68%
    16:00 +10°C° 1.3 mm 7 mps 735 mmHg 74%
    17:00 +9°C° 1.3 mm 8 mps 734 mmHg 80%
    18:00 +10°C° 1.8 mm 9 mps 733 mmHg 82%
    19:00 +9°C° 1.8 mm 10 mps 731 mmHg 83%
    20:00 +9°C° 1.8 mm 11 mps 730 mmHg 85%
    21:00 +9°C° 0.8 mm 11 mps 728 mmHg 84%
    22:00 +9°C° 0.8 mm 10 mps 727 mmHg 83%
    23:00 +10°C° 0.8 mm 9 mps 726 mmHg 82%

    25 September, Tuesday

    Time Temperature Precipitation Wind Pressure Humidity
    00:00 +8°C° 0.1 mm 9 mps 726 mmHg 82%
    01:00 +7°C° 0.1 mm 9 mps 725 mmHg 83%
    02:00 +7°C° 0.1 mm 9 mps 725 mmHg 83%
    03:00 +7°C° 0.4 mm 9 mps 725 mmHg 84%
    04:00 +7°C° 0.4 mm 9 mps 724 mmHg 85%
    05:00 +7°C° 0.4 mm 9 mps 724 mmHg 85%
    06:00 +6°C° 0.3 mm 9 mps 724 mmHg 86%
    07:00 +6°C° 0.3 mm 9 mps 724 mmHg 86%
    08:00 +6°C° 0.3 mm 9 mps 724 mmHg 87%
    09:00 +6°C° 0.5 mm 9 mps 725 mmHg 86%
    10:00 +6°C° 0.5 mm 9 mps 726 mmHg 86%
    11:00 +6°C° 0.5 mm 9 mps 726 mmHg 86%
    12:00 +6°C° 0.4 mm 9 mps 727 mmHg 86%
    13:00 +6°C° 0.4 mm 10 mps 728 mmHg 85%
    14:00 +6°C° 0.4 mm 10 mps 728 mmHg 84%
    15:00 +6°C° 0.4 mm 10 mps 729 mmHg 84%
    16:00 +6°C° 0.4 mm 10 mps 730 mmHg 84%
    17:00 +4°C° 0.4 mm 11 mps 731 mmHg 83%
    18:00 +5°C° 0.3 mm 10 mps 732 mmHg 83%
    19:00 +5°C° 0.3 mm 10 mps 733 mmHg 82%
    20:00 +5°C° 0.3 mm 10 mps 734 mmHg 81%
    21:00 +3°C° 0.1 mm 10 mps 735 mmHg 81%
    22:00 +3°C° 0.1 mm 9 mps 736 mmHg 80%
    23:00 +3°C° 0.1 mm 9 mps 737 mmHg 79%
    Show more